Eau Claire, WI

4:16 PM CDT on August 24, 2019 (GMT -0500)
Chippewa Valley Regional

Weather History for KEAU - July, 2019

Change the Weather History Date:

Monday, July 22, 2019

  Actual Average Record
Temperature  
Mean Temperature 69 °F 72 °F  
Max Temperature 78 °F 83 °F 104 °F (1934)
Min Temperature 60 °F 60 °F 45 °F (1947)
Degree Days  
Heating Degree Days 0 1  
Month to date heating degree days 0 2  
Since 1 June heating degree days 64 64  
Since 1 July heating degree days 0 2  
Cooling Degree Days 4 7  
Month to date cooling degree days 178 153  
Year to date cooling degree days 249 305  
Since 1 June cooling degree days 239 273  
Growing Degree Days 19 (Base 50)    
Moisture  
Dew Point 53 °F    
Average Humidity 60    
Maximum Humidity 84    
Minimum Humidity 36    
Precipitation  
Precipitation 0.00 in 0.12 in 2.07 in (2007)
Month to date precipitation 4.32 2.73  
Year to date precipitation 23.83 16.50  
Snow  
Snow 0.00 in 0.00 in 0.00 in ()
Month to date snowfall 0.0 0.0  
Since 1 June snowfall 0.0 0.0  
Since 1 July snowfall 0.0 0.0  
Snow Depth 0.00 in    
Sea Level Pressure  
Sea Level Pressure 30.15 in    
Wind  
Wind Speed 7 mph (NNW)    
Max Wind Speed 16 mph    
Max Gust Speed 23 mph    
Visibility 10 miles    
Events      
T = Trace of Precipitation, MM = Missing Value Source: NWS Daily Summary

Daily Weather History Graph

Daily Weather History Graph

Search for Another Location

Airport or City:

Astronomy

Jul. 22, 2019 Rise Set
Actual Time 5:40 AM CDT 8:43 PM CDT
Civil Twilight 5:05 AM CDT 9:18 PM CDT
Nautical Twilight 4:20 AM CDT 10:03 PM CDT
Astronomical Twilight 3:26 AM CDT 10:56 PM CDT
Moon 11:50 PM CDT (7/22) 11:09 AM CDT (7/22)
Length of Visible Light 16h 12m
Length of Day
15h 02m
Waning Gibbous, 72% of the Moon is Illuminated
Jul 22
Waning Gibbous
Jul 24
Last Quarter
Jul 31
New
Aug 7
First Quarter
Aug 15
Full

Hourly Weather History & Observations

Time (CDT) Temp. Dew Point Humidity Pressure Visibility Wind Dir Wind Speed Gust Speed Precip Events Conditions
12:56 AM 66.0 °F 57.0 °F 73% 30.09 in 10.0 mi Calm Calm - N/A   Overcast
1:56 AM 64.9 °F 57.0 °F 75% 30.10 in 10.0 mi NNE 3.5 mph - N/A   Overcast
2:56 AM 64.0 °F 55.9 °F 75% 30.10 in 10.0 mi NE 4.6 mph - N/A   Mostly Cloudy
3:56 AM 63.0 °F 55.0 °F 75% 30.11 in 10.0 mi NNE 4.6 mph - N/A   Overcast
4:56 AM 61.0 °F 55.9 °F 83% 30.13 in 10.0 mi North 3.5 mph - N/A   Overcast
5:56 AM 60.1 °F 55.0 °F 83% 30.14 in 10.0 mi NNE 3.5 mph - N/A   Overcast
6:56 AM 62.1 °F 55.0 °F 78% 30.16 in 10.0 mi NNE 4.6 mph - N/A   Overcast
7:56 AM 64.9 °F 55.0 °F 70% 30.17 in 10.0 mi NNE 8.1 mph - N/A   Mostly Cloudy
8:56 AM 68.0 °F 53.1 °F 59% 30.19 in 10.0 mi North 8.1 mph - N/A   Clear
9:56 AM 70.0 °F 50.0 °F 49% 30.19 in 10.0 mi North 8.1 mph - N/A   Clear
10:56 AM 73.0 °F 50.0 °F 44% 30.19 in 10.0 mi NNW 10.4 mph - N/A   Clear
11:56 AM 73.9 °F 50.0 °F 43% 30.18 in 10.0 mi NNW 9.2 mph 19.6 mph N/A   Clear
12:56 PM 75.9 °F 50.0 °F 40% 30.18 in 10.0 mi North 11.5 mph - N/A   Partly Cloudy
1:56 PM 77.0 °F 50.0 °F 39% 30.17 in 10.0 mi North 9.2 mph 19.6 mph N/A   Partly Cloudy
2:56 PM 77.0 °F 51.1 °F 40% 30.16 in 10.0 mi NW 10.4 mph - N/A   Scattered Clouds
3:56 PM 77.0 °F 48.9 °F 37% 30.15 in 10.0 mi North 9.2 mph 21.9 mph N/A   Partly Cloudy
4:56 PM 78.1 °F 51.1 °F 39% 30.14 in 10.0 mi North 11.5 mph - N/A   Partly Cloudy
5:56 PM 77.0 °F 51.1 °F 40% 30.13 in 10.0 mi NNW 10.4 mph - N/A   Clear
6:56 PM 75.0 °F 53.1 °F 46% 30.13 in 10.0 mi NW 6.9 mph - N/A   Clear
7:56 PM 71.1 °F 55.0 °F 57% 30.13 in 10.0 mi WNW 4.6 mph - N/A   Clear
8:56 PM 68.0 °F 55.9 °F 65% 30.14 in 10.0 mi Calm Calm - N/A   Clear
9:56 PM 66.9 °F 55.0 °F 66% 30.15 in 10.0 mi WNW 8.1 mph - N/A   Clear
10:56 PM 66.9 °F 55.9 °F 68% 30.15 in 10.0 mi WNW 5.8 mph - N/A   Mostly Cloudy
11:56 PM 64.9 °F 55.9 °F 73% 30.15 in 10.0 mi NW 6.9 mph - N/A   Clear